Weather in Atamanovka

Russia / Volgograd Oblast     50°10′11″N   44°04′05″E
temp.,
°C
wind,
m/s
gust,
m/s
humid.,
%
clouds,
%
prec.,
mm/h
press.,
hPa
HPBL,
m
4 march, thu
thu400:00−6wnw389386 0.0 1018181
03:00−5wsw489362 0.0 1017193
06:00−3wsw6139299 0.1 1016462
09:00−1wsw8139099 0.2 1015945
12:00+1wsw8148187 0.0 1014888
15:00+3wsw7147144 0.0 1012932
18:00+1sw716690 0.0 1010436
21:00+1sw817710 0.0 1009534
5 march, fri
fri500:00+1sw817770 0.0 1008533
03:00+2sw8178534 0.0 1007661
06:00+2wsw81689100 0.1 1007621
09:00+2wsw71396100 0.3 1008510
12:00+2w51098100 0.9 1008393
15:00+1w4999100 2.1 1010377
18:000nw4798100 0.1 1012310
21:00−1nw2295100 0.1 101441
6 march, sat
sat600:00−2nne1192100 0.1 101556
03:00−2ne3587100 0.1 1015217
06:00−3ne4693100 0.2 1014334
09:00−3ene5893100 1.6 1013476
12:00−3ene6993100 1.6 1012639
15:00−3ne6893100 2.8 1012618
18:00−4nne5895100 0.8 1012600
21:00−5nne3695100 1.1 1014250
7 march, sun
sun700:00−7n229271 0.0 101525
03:00−8nnw229254 0.0 101721
06:00−8w22910 0.0 101821
09:00−6wsw349112 0.0 1019263
12:00−3w578397 0.1 1019917
15:00−3wsw7117388 0.1 10171126
18:00−4sw71480100 0.0 1015864
21:00−3sw81774100 0.0 1013890
8 march, mon
mon800:00−3sw91773100 0.0 1011888
03:00−3wsw8157899 0.0 1010735
06:00−3sw7158599 0.0 1009657
09:00−2sw9158199 0.2 1008890
12:000wsw101588100 0.1 10071270
15:000wsw101590100 0.4 10081190
18:00−2nw7129397 0.8 1010597
21:00−6nnw257776 1.0 1014141